Savannah, GA

11:47 PM EDT on September 20, 2017 (GMT -0400)
Savannah International

Weather History for KSAV - May, 2013

Change the Weather History Date:

Monday, May 13, 2013

  Actual Average Record
Temperature  
Mean Temperature 65 °F 73 °F  
Max Temperature 76 °F 84 °F 95 °F (1967)
Min Temperature 53 °F 61 °F 46 °F (1960)
Degree Days  
Heating Degree Days 0 0  
Month to date heating degree days 3 6  
Since 1 July heating degree days 1625 1809  
Cooling Degree Days 0 8  
Month to date cooling degree days 52 84  
Year to date cooling degree days 190 220  
Growing Degree Days 14 (Base 50)    
Moisture  
Dew Point 40 °F    
Average Humidity 44    
Maximum Humidity 67    
Minimum Humidity 21    
Precipitation  
Precipitation 0.00 in 0.08 in 2.90 in (1954)
Month to date precipitation 2.37 1.09  
Year to date precipitation 18.75 14.37  
Sea Level Pressure  
Sea Level Pressure 30.10 in    
Wind  
Wind Speed 7 mph (NNW)    
Max Wind Speed 17 mph    
Max Gust Speed 23 mph    
Visibility 10 miles    
Events      
T = Trace of Precipitation, MM = Missing Value Source: NWS Daily Summary

Daily Weather History Graph

Daily Weather History Graph

Search for Another Location

Airport or City:

Trip Planner

Search our weather history database for the weather conditions in past years. The results will help you decide how hot, cold, wet, or windy it might be!

Date:

Astronomy

May. 13, 2013 Rise Set
Actual Time 6:28 AM EDT 8:14 PM EDT
Civil Twilight 6:01 AM EDT 8:41 PM EDT
Nautical Twilight 5:29 AM EDT 9:13 PM EDT
Astronomical Twilight 4:55 AM EDT 9:47 PM EDT
Moon 9:14 AM EDT (5/13) 11:22 PM EDT (5/13)
Length of Visible Light 14h 39m
Length of Day
13h 45m
Waxing Crescent, 12% of the Moon is Illuminated
May 13
Waxing Crescent
May 18
First Quarter
May 25
Full
May 31
Last Quarter
Jun 8
New

Hourly Weather History & Observations

Time (EDT) Temp. Dew Point Humidity Pressure Visibility Wind Dir Wind Speed Gust Speed Precip Events Conditions
12:53 AM 64.0 °F 44.1 °F 48% 30.04 in 10.0 mi NNW 5.8 mph - N/A   Clear
1:53 AM 63.0 °F 41.0 °F 45% 30.03 in 10.0 mi NNW 8.1 mph - N/A   Clear
2:53 AM 60.1 °F 39.0 °F 46% 30.04 in 10.0 mi NNW 6.9 mph - N/A   Clear
3:53 AM 57.9 °F 39.0 °F 49% 30.04 in 10.0 mi NW 6.9 mph - N/A   Clear
4:53 AM 55.9 °F 39.0 °F 53% 30.05 in 10.0 mi NW 6.9 mph - N/A   Clear
5:53 AM 54.0 °F 39.0 °F 57% 30.06 in 10.0 mi NW 6.9 mph - N/A   Scattered Clouds
6:53 AM 53.1 °F 39.0 °F 59% 30.07 in 10.0 mi WNW 3.5 mph - N/A   Mostly Cloudy
7:53 AM 57.0 °F 41.0 °F 55% 30.09 in 10.0 mi NNW 5.8 mph - N/A   Mostly Cloudy
8:53 AM 57.9 °F 42.1 °F 56% 30.12 in 10.0 mi NNW 8.1 mph - N/A   Mostly Cloudy
9:53 AM 64.0 °F 43.0 °F 46% 30.14 in 10.0 mi North 10.4 mph - N/A   Mostly Cloudy
10:53 AM 64.9 °F 41.0 °F 42% 30.15 in 10.0 mi NNE 11.5 mph - N/A   Mostly Cloudy
11:53 AM 69.1 °F 39.9 °F 35% 30.15 in 10.0 mi North 10.4 mph - N/A   Scattered Clouds
12:53 PM 71.1 °F 39.0 °F 31% 30.14 in 10.0 mi NNE 8.1 mph 16.1 mph N/A   Partly Cloudy
1:53 PM 73.0 °F 37.0 °F 27% 30.13 in 10.0 mi NW 10.4 mph 23.0 mph N/A   Partly Cloudy
2:53 PM 75.0 °F 39.0 °F 27% 30.12 in 10.0 mi NW 10.4 mph 17.3 mph N/A   Scattered Clouds
3:53 PM 75.0 °F 36.0 °F 24% 30.09 in 10.0 mi NW 12.7 mph 19.6 mph N/A   Partly Cloudy
4:53 PM 75.0 °F 34.0 °F 22% 30.08 in 10.0 mi NW 10.4 mph 19.6 mph N/A   Clear
5:53 PM 75.0 °F 36.0 °F 24% 30.07 in 10.0 mi WNW 12.7 mph 16.1 mph N/A   Partly Cloudy
6:53 PM 73.9 °F 36.0 °F 25% 30.07 in 10.0 mi NNW 6.9 mph - N/A   Partly Cloudy
7:53 PM 69.8 °F 37.4 °F 31% 30.09 in 10.0 mi NW 6.9 mph - N/A   Clear
8:53 PM 64.0 °F 44.1 °F 48% 30.12 in 10.0 mi Calm Calm - N/A   Clear
9:00 PM - - N/A% - - North - - N/A   Sand
9:53 PM 59.0 °F 46.0 °F 62% 30.14 in 10.0 mi West 3.5 mph - N/A   Clear
10:53 PM 57.9 °F 46.0 °F 65% 30.16 in 10.0 mi Calm Calm - N/A   Clear
11:53 PM 55.9 °F 44.1 °F 64% 30.16 in 10.0 mi Calm Calm - N/A   Clear